Weather History for North Myrtle Beach, SC

Change the Weather History Date:

Saturday, February 23, 2013

  Actual Average Record
Temperature  
Mean Temperature 47 °F 49 °F  
Max Temperature 50 °F 59 °F 70 °F (1955)
Min Temperature 43 °F 40 °F 25 °F (1999)
Degree Days  
Heating Degree Days 18 16  
Month to date heating degree days 420 403  
Since 1 July heating degree days 1709 1871  
Cooling Degree Days 0 0  
Month to date cooling degree days 0 0  
Year to date cooling degree days 2 0  
Moisture  
Dew Point 45 °F    
Average Humidity 96    
Maximum Humidity 100    
Minimum Humidity 92    
Precipitation  
Precipitation 0.42 in 0.13 in 0.43 in (2006)
Month to date precipitation 3.20 2.81  
Year to date precipitation 3.84 6.50  
Sea Level Pressure  
Sea Level Pressure 29.92 in    
Wind  
Wind Speed 4 mph (NNW)    
Max Wind Speed 14 mph    
Max Gust Speed 17 mph    
Visibility 4 miles    
Events Rain    
T = Trace of Precipitation, MM = Missing Value Source: NWS Daily Summary

Daily Weather History Graph

Daily Weather History Graph

Search for Another Location

Airport:

Trip Planner

Search our weather history database for the weather conditions in past years. The results will help you decide how hot, cold, wet, or windy it might be!

Date:

Astronomy

Feb. 23, 2013 Rise Set
Actual Time 6:50 AM EST 6:06 PM EST
Civil Twilight 6:25 AM EST 6:31 PM EST
Nautical Twilight 5:56 AM EST 7:00 PM EST
Astronomical Twilight 5:27 AM EST 7:29 PM EST
Moon 4:17 PM EST (2/23) 5:07 AM EST (2/23)
Length of Visible Light 12h 06m
Length of Day
11h 16m
Waxing Gibbous, 95% of the Moon is Illuminated
Feb 23
Waxing Gibbous
Feb 25
Full
Mar 4
Last Quarter
Mar 11
New
Mar 19
First Quarter

Hourly Weather History & Observations

Time (EST) Temp. Windchill Dew Point Humidity Pressure Visibility Wind Dir Wind Speed Gust Speed Precip Events Conditions
12:15 AM 46.4 °F 45.2 °F 44.6 °F 93% 30.06 in 2.5 mi Variable 3.5 mph - N/A   Overcast
12:53 AM 46.0 °F 43.9 °F 45.0 °F 96% 30.05 in 2.0 mi North 4.6 mph - N/A   Overcast
1:23 AM 46.4 °F 43.5 °F 44.6 °F 93% 30.03 in 1.8 mi North 5.8 mph - N/A   Overcast
1:53 AM 45.0 °F 41.8 °F 44.1 °F 97% 30.03 in 1.0 mi NNW 5.8 mph - 0.00 in   Overcast
2:53 AM 45.0 °F - 44.1 °F 97% 30.01 in 2.5 mi Calm Calm - 0.02 in Rain Light Rain
3:00 AM 44.6 °F 42.2 °F 44.6 °F 100% 30.00 in 4.0 mi North 4.6 mph - 0.00 in Rain Light Rain
3:53 AM 44.1 °F 41.5 °F 43.0 °F 96% 29.98 in 6.0 mi North 4.6 mph - 0.00 in Rain Light Rain
4:53 AM 43.0 °F 39.5 °F 42.1 °F 97% 29.98 in 6.0 mi NNW 5.8 mph - 0.01 in Rain Light Rain
5:53 AM 43.0 °F 40.3 °F 42.1 °F 97% 29.98 in 6.0 mi North 4.6 mph - 0.02 in Rain Light Rain
7:28 AM 42.8 °F 39.3 °F 42.8 °F 100% 29.99 in 3.0 mi North 5.8 mph - 0.07 in Rain Light Rain
7:53 AM 43.0 °F 38.8 °F 42.1 °F 97% 29.97 in 3.0 mi NNE 6.9 mph - 0.10 in Rain Light Rain
8:15 AM 42.8 °F 37.5 °F 42.8 °F 100% 29.96 in 3.0 mi NNE 9.2 mph - 0.01 in Rain Light Rain
8:30 AM 42.8 °F 38.6 °F 42.8 °F 100% 29.96 in 3.0 mi North 6.9 mph - 0.04 in Rain Rain
8:53 AM 44.1 °F 40.1 °F 42.1 °F 93% 29.96 in 3.0 mi NNE 6.9 mph - 0.04 in Rain Light Rain
9:53 AM 45.0 °F 43.5 °F 43.0 °F 93% 29.94 in 3.0 mi Variable 3.5 mph - 0.12 in Rain Light Rain
10:53 AM 45.0 °F 41.8 °F 43.0 °F 93% 29.95 in 5.0 mi NNW 5.8 mph - 0.01 in Rain Light Rain
11:53 AM 45.0 °F - 43.0 °F 93% 29.95 in 5.0 mi Calm Calm - 0.00 in Rain Light Rain
12:53 PM 46.0 °F - 44.1 °F 93% 29.92 in 5.0 mi Calm Calm - 0.00 in   Overcast
1:53 PM 46.0 °F - 46.0 °F 100% 29.90 in 1.0 mi Calm Calm - 0.00 in   Overcast
2:23 PM 48.2 °F - 46.4 °F 93% 29.88 in 2.5 mi Calm Calm - N/A   Overcast
2:33 PM 48.2 °F - 46.4 °F 93% 29.88 in 4.0 mi Variable 3.5 mph - N/A   Overcast
2:53 PM 48.9 °F - 48.0 °F 97% 29.87 in 8.0 mi Calm Calm - N/A   Overcast
3:01 PM 50.0 °F - 48.2 °F 94% 29.88 in 2.0 mi NW 4.6 mph - N/A   Overcast
3:53 PM 50.0 °F - 48.0 °F 93% 29.87 in 1.0 mi Variable 4.6 mph - N/A   Overcast
4:07 PM 48.2 °F - 48.2 °F 100% 29.86 in 0.8 mi NW 5.8 mph - N/A   Overcast
4:53 PM 48.9 °F - 48.0 °F 97% 29.87 in 0.8 mi Variable 3.5 mph - N/A   Overcast
5:42 PM 48.2 °F - 46.4 °F 93% 29.84 in 1.0 mi North 3.5 mph - N/A   Overcast
5:53 PM 48.0 °F - 46.9 °F 96% 29.85 in 1.2 mi Calm Calm - N/A   Overcast
6:24 PM 48.2 °F - 46.4 °F 93% 29.85 in 2.5 mi Calm Calm - N/A   Overcast
6:37 PM 48.2 °F - 46.4 °F 93% 29.86 in 5.0 mi NNW 3.5 mph - N/A   Overcast
6:53 PM 48.0 °F - 46.9 °F 96% 29.87 in 9.0 mi WNW 3.5 mph - N/A   Overcast
7:24 PM 48.2 °F - 46.4 °F 93% 29.88 in 2.0 mi Variable 5.8 mph - N/A   Overcast
7:37 PM 48.2 °F - 46.4 °F 93% 29.87 in 5.0 mi Calm Calm - N/A   Overcast
7:53 PM 48.0 °F - 46.9 °F 96% 29.89 in 5.0 mi NW 8.1 mph - N/A   Overcast
8:04 PM 46.4 °F 43.5 °F 46.4 °F 100% 29.88 in 5.0 mi NNW 5.8 mph - N/A   Overcast
8:53 PM 46.9 °F - 46.0 °F 97% 29.89 in 5.0 mi WNW 3.5 mph - N/A   Mostly Cloudy
9:53 PM 46.9 °F - 46.0 °F 97% 29.91 in 10.0 mi Variable 4.6 mph - 0.00 in   Overcast
10:53 PM 46.9 °F - 46.0 °F 97% 29.91 in 10.0 mi WSW 5.8 mph - 0.00 in Rain Light Rain
11:53 PM 48.0 °F - 46.9 °F 96% 29.81 in 6.0 mi SE 9.2 mph - 0.05 in Rain Light Rain